Provincetown, MA

2:07 PM EDT on August 25, 2016 (GMT -0400)
Provincetown Municipal

Weather History for KPVC - July, 2013

Change the Weather History Date:

Friday, July 5, 2013

  Actual Average Record
Temperature  
Mean Temperature 78 °F -  
Max Temperature 87 °F 75 °F 96 °F (1955)
Min Temperature 69 °F 60 °F 50 °F (2015)
Cooling Degree Days 13    
Growing Degree Days 28 (Base 50)    
Moisture  
Dew Point 71 °F    
Average Humidity 82    
Maximum Humidity 100    
Minimum Humidity 66    
Precipitation  
Precipitation 0.07 in - - ()
Sea Level Pressure  
Sea Level Pressure 30.13 in    
Wind  
Wind Speed 12 mph (SW)    
Max Wind Speed 21 mph    
Max Gust Speed 26 mph    
Visibility 10 miles    
Events      
Averages and records for this station are not official NWS values.
T = Trace of Precipitation, MM = Missing Value Source: NWS Daily Summary

Daily Weather History Graph

Daily Weather History Graph

Search for Another Location

Airport or City:

Trip Planner

Search our weather history database for the weather conditions in past years. The results will help you decide how hot, cold, wet, or windy it might be!

Date:

Astronomy

Jul. 05, 2013 Rise Set
Actual Time 5:11 AM EDT 8:19 PM EDT
Civil Twilight 4:37 AM EDT 8:53 PM EDT
Nautical Twilight 3:53 AM EDT 9:37 PM EDT
Astronomical Twilight 3:01 AM EDT 10:29 PM EDT
Moon 3:09 AM EDT (7/5) 6:10 PM EDT (7/5)
Length of Visible Light 16h 16m
Length of Day
15h 08m
Waning Crescent, 6% of the Moon is Illuminated
Jul 5
Waning Crescent
Jul 8
New
Jul 15
First Quarter
Jul 22
Full
Jul 29
Last Quarter

Hourly Weather History & Observations

Time (EDT) Temp. Heat Index Dew Point Humidity Pressure Visibility Wind Dir Wind Speed Gust Speed Precip Events Conditions
12:15 AM 71.6 °F - 69.8 °F 94% 30.15 in 9.0 mi SW 12.7 mph 17.3 mph N/A   Clear
12:35 AM 71.6 °F - 68.0 °F 88% 30.15 in 10.0 mi SSW 11.5 mph - N/A   Clear
12:55 AM 69.8 °F - 68.0 °F 94% 30.15 in 9.0 mi SW 9.2 mph - N/A   Clear
1:15 AM 69.8 °F - 68.0 °F 94% 30.15 in 10.0 mi SW 10.4 mph - N/A   Clear
1:35 AM 69.8 °F - 69.8 °F 100% 30.15 in 10.0 mi SW 11.5 mph - N/A   Clear
1:55 AM 71.6 °F - 69.8 °F 94% 30.14 in 10.0 mi SW 12.7 mph - N/A   Clear
2:15 AM 71.6 °F - 69.8 °F 94% 30.14 in 10.0 mi SW 10.4 mph - N/A   Clear
2:35 AM 71.6 °F - 69.8 °F 94% 30.14 in 10.0 mi SW 9.2 mph - N/A   Clear
2:55 AM 71.6 °F - 69.8 °F 94% 30.14 in 10.0 mi SW 10.4 mph - N/A   Clear
3:15 AM 71.6 °F - 68.0 °F 88% 30.14 in 10.0 mi SW 9.2 mph - N/A   Clear
3:35 AM 71.6 °F - 68.0 °F 88% 30.14 in 10.0 mi SW 9.2 mph - N/A   Clear
3:55 AM 69.8 °F - 68.0 °F 94% 30.14 in 10.0 mi SW 10.4 mph - N/A   Clear
4:15 AM 69.8 °F - 69.8 °F 100% 30.15 in 10.0 mi SW 10.4 mph - N/A   Clear
4:35 AM 71.6 °F - 69.8 °F 94% 30.15 in 10.0 mi SW 10.4 mph - N/A   Clear
4:55 AM 69.8 °F - 68.0 °F 94% 30.15 in 9.0 mi SW 10.4 mph - N/A   Clear
5:15 AM 69.8 °F - 69.8 °F 100% 30.15 in 8.0 mi SW 8.1 mph - N/A   Clear
5:35 AM 69.8 °F - 69.8 °F 100% 30.16 in 8.0 mi SW 8.1 mph - N/A   Clear
5:55 AM 71.6 °F - 69.8 °F 94% 30.16 in 8.0 mi SW 8.1 mph - N/A   Clear
6:15 AM 71.6 °F - 69.8 °F 94% 30.17 in 9.0 mi SSW 6.9 mph - N/A   Clear
6:35 AM 71.6 °F - 69.8 °F 94% 30.17 in 9.0 mi SW 8.1 mph - N/A   Clear
6:55 AM 73.4 °F - 69.8 °F 88% 30.17 in 8.0 mi SW 9.2 mph - N/A   Clear
7:15 AM 73.4 °F - 69.8 °F 88% 30.17 in 8.0 mi WSW 9.2 mph - N/A   Clear
7:35 AM 75.2 °F - 69.8 °F 83% 30.17 in 8.0 mi WSW 9.2 mph - N/A   Clear
7:55 AM 75.2 °F - 71.6 °F 89% 30.18 in 10.0 mi WSW 10.4 mph - N/A   Clear
8:15 AM 77.0 °F - 71.6 °F 83% 30.18 in 10.0 mi WSW 11.5 mph - N/A   Clear
8:35 AM 78.8 °F - 71.6 °F 78% 30.18 in 10.0 mi WSW 11.5 mph - N/A   Clear
8:55 AM 78.8 °F - 71.6 °F 78% 30.18 in 10.0 mi West 10.4 mph - N/A   Clear
9:15 AM 80.6 °F 84.6 °F 71.6 °F 74% 30.17 in 10.0 mi West 8.1 mph - N/A   Clear
9:35 AM 82.4 °F 88.2 °F 73.4 °F 74% 30.17 in 10.0 mi WSW 10.4 mph - N/A   Clear
9:55 AM 82.4 °F 88.2 °F 73.4 °F 74% 30.16 in 10.0 mi SW 8.1 mph - 0.01 in   Clear
10:15 AM 82.4 °F 88.2 °F 73.4 °F 74% 30.17 in 10.0 mi WSW 9.2 mph - N/A   Clear
10:35 AM 82.4 °F 88.2 °F 73.4 °F 74% 30.17 in 10.0 mi WSW 9.2 mph - N/A   Clear
10:55 AM 84.2 °F 90.9 °F 73.4 °F 70% 30.16 in 10.0 mi SW 9.2 mph - N/A   Clear
11:15 AM 84.2 °F 90.9 °F 73.4 °F 70% 30.16 in 10.0 mi SW 8.1 mph - N/A   Clear
11:35 AM 86.0 °F 93.4 °F 73.4 °F 66% 30.16 in 10.0 mi SW 8.1 mph - N/A   Clear
11:55 AM 86.0 °F 93.4 °F 73.4 °F 66% 30.15 in 10.0 mi SW 9.2 mph - N/A   Clear
12:15 PM 86.0 °F 95.1 °F 75.2 °F 70% 30.15 in 10.0 mi SW 10.4 mph - 0.01 in   Clear
12:35 PM 87.8 °F 97.6 °F 75.2 °F 66% 30.15 in 10.0 mi SW 12.7 mph - 0.01 in   Clear
12:55 PM 87.8 °F 97.6 °F 75.2 °F 66% 30.14 in 10.0 mi SW 10.4 mph - 0.01 in   Clear
1:15 PM 87.8 °F 97.6 °F 75.2 °F 66% 30.14 in 10.0 mi SSW 12.7 mph - 0.01 in   Clear
1:35 PM 87.8 °F 97.6 °F 75.2 °F 66% 30.13 in 10.0 mi SSW 10.4 mph - 0.01 in   Clear
1:55 PM 87.8 °F 97.6 °F 75.2 °F 66% 30.13 in 10.0 mi SSW 13.8 mph 18.4 mph 0.01 in   Clear
2:15 PM 87.8 °F 97.6 °F 75.2 °F 66% 30.12 in 10.0 mi SW 12.7 mph 18.4 mph N/A   Clear
2:35 PM 86.0 °F 93.4 °F 73.4 °F 66% 30.12 in 10.0 mi SW 16.1 mph - N/A   Clear
2:55 PM 86.0 °F 93.4 °F 73.4 °F 66% 30.12 in 10.0 mi SW 13.8 mph 19.6 mph N/A   Clear
3:15 PM 84.2 °F 90.9 °F 73.4 °F 70% 30.11 in 10.0 mi SSW 16.1 mph 21.9 mph N/A   Clear
3:35 PM 84.2 °F 89.6 °F 71.6 °F 66% 30.10 in 10.0 mi SSW 16.1 mph 21.9 mph N/A   Clear
3:55 PM 82.4 °F 87.2 °F 71.6 °F 70% 30.10 in 10.0 mi SSW 15.0 mph 21.9 mph N/A   Clear
4:15 PM 82.4 °F 87.2 °F 71.6 °F 70% 30.09 in 10.0 mi SSW 15.0 mph 19.6 mph N/A   Clear
4:35 PM 80.6 °F 84.6 °F 71.6 °F 74% 30.09 in 8.0 mi SSW 15.0 mph 21.9 mph N/A   Clear
4:55 PM 80.6 °F 84.6 °F 71.6 °F 74% 30.09 in 10.0 mi SW 18.4 mph 25.3 mph N/A   Clear
5:15 PM 80.6 °F 84.6 °F 71.6 °F 74% 30.08 in 10.0 mi SW 20.7 mph 26.5 mph N/A   Clear
5:35 PM 80.6 °F 84.6 °F 71.6 °F 74% 30.08 in 10.0 mi SW 19.6 mph 26.5 mph N/A   Clear
5:55 PM 80.6 °F 84.6 °F 71.6 °F 74% 30.08 in 10.0 mi SSW 19.6 mph 26.5 mph N/A   Clear
6:15 PM 78.8 °F - 71.6 °F 78% 30.07 in 10.0 mi SW 18.4 mph 24.2 mph 0.02 in   Clear
6:35 PM 78.8 °F - 69.8 °F 74% 30.07 in 10.0 mi SSW 16.1 mph 20.7 mph 0.02 in   Clear
6:55 PM 77.0 °F - 69.8 °F 78% 30.07 in 10.0 mi SSW 15.0 mph 25.3 mph 0.02 in   Clear
7:15 PM 75.2 °F - 69.8 °F 83% 30.07 in 10.0 mi SW 17.3 mph - 0.01 in   Clear
7:35 PM 75.2 °F - 69.8 °F 83% 30.06 in 10.0 mi SW 16.1 mph 21.9 mph 0.01 in   Clear
7:55 PM 73.4 °F - 69.8 °F 88% 30.07 in 10.0 mi SW 16.1 mph 20.7 mph 0.01 in   Clear
8:15 PM 73.4 °F - 69.8 °F 88% 30.06 in 10.0 mi SW 13.8 mph - N/A   Clear
8:35 PM 71.6 °F - 69.8 °F 94% 30.07 in 10.0 mi SW 15.0 mph - N/A   Clear
8:55 PM 71.6 °F - 69.8 °F 94% 30.07 in 10.0 mi SW 16.1 mph - N/A   Clear
9:15 PM 71.6 °F - 69.8 °F 94% 30.07 in 10.0 mi SW 18.4 mph - N/A   Clear
9:35 PM 71.6 °F - 69.8 °F 94% 30.08 in 10.0 mi SW 16.1 mph 20.7 mph N/A   Clear
9:55 PM 71.6 °F - 69.8 °F 94% 30.08 in 10.0 mi SW 16.1 mph - N/A   Clear
10:15 PM 71.6 °F - 68.0 °F 88% 30.08 in 10.0 mi SW 13.8 mph - N/A   Clear
10:35 PM 71.6 °F - 68.0 °F 88% 30.08 in 10.0 mi SW 13.8 mph - N/A   Clear
10:55 PM 71.6 °F - 68.0 °F 88% 30.08 in 10.0 mi SW 12.7 mph - N/A   Clear
11:35 PM 71.6 °F - 69.8 °F 94% 30.08 in 10.0 mi SW 11.5 mph - 0.01 in   Clear
11:55 PM 71.6 °F - 69.8 °F 94% 30.08 in 10.0 mi SW 12.7 mph - N/A   Clear